Preview of NWS' New Version of Forecast
This preview is not operational and should not be used for support decisions.

Regional Weather Roundup (RWR)

Issued by National Weather Service (NWS)

                            
000
ASUS42 KTBW 231515
RWRFL 
FLORIDA REGIONAL WEATHER ROUNDUP
NATIONAL WEATHER SERVICE TAMPA BAY RUSKIN FL
1100 AM EDT SUN JUN 23 2019

NOTE: "FAIR" INDICATES FEW OR NO CLOUDS BELOW 12,000 FEET WITH NO
SIGNIFICANT WEATHER AND/OR OBSTRUCTIONS TO VISIBILITY.

FLZ001>010-012>015-112-114-115-231600-
PANHANDLE FLORIDA
  
CITY           SKY/WX    TMP DP  RH WIND       PRES   REMARKS
PENSACOLA      FAIR      87  78  74 SW10      30.07S HX 100           
PENSACOLA NAS  FAIR      86  78  77 SW13      30.07S HX  98           
CRESTVIEW      FAIR      89  71  55 VRB6      30.09F HX  95           
DUKE FIELD     FAIR      89  71  55 SW10      30.08F HX  95           
VALPARAISO     FAIR      87  76  69 S9        30.08S HX  97           
MARY ESTHER    PTSUNNY   86  77  74 SW6       30.07S HX  98           
TRI COUNTY     FAIR      87  75  67 CALM      30.10F HX  96           
PANAMA CITY    FAIR      87  74  64 SW8       30.08S HX  95           
TYNDALL AFB    PTSUNNY   88  77  70 W7        30.09R HX 100           
APALACHICOLA   FAIR      88  73  61 SW9       30.09F HX  95           

STATION/POSITION SKY/WX   TEMP    WIND        PRES    WAVE   SWELL
                          AIR SEA DIR/SP/G            HT/PER HT/PER
                          (F)     (DEG/KT/KT) (MB)    (FT/S) (FT/S)
PANAMA CITY BEAC           83 83  240/  8/  9 1019.5
TOWER C          NOT AVBL

$$
FLZ011-016>038-118-127-128-134-139-239-231600-
NORTH FLORIDA
  
CITY           SKY/WX    TMP DP  RH WIND       PRES   REMARKS
MARIANNA       FAIR      86  75  69 NW8       30.10S HX  95           
TALLAHASSEE    FAIR      86  75  69 NW6       30.11S HX  95           
PERRY          FAIR      87  76  69 NW10      30.12S HX  97           
LIVE OAK       SUNNY     86  75  70 NW6G12    30.11S HX  95           
CROSS CITY     FAIR      88  77  69 W8        30.11S HX 100           
LAKE CITY      FAIR      84  72  65 W7        30.12S                  
GAINESVILLE    FAIR      87  75  67 W9        30.13S HX  96           
PALATKA        FAIR      86  75  70 W5        30.11F HX  95           
MAYPORT NAS    FAIR      86  69  56 VRB5      30.11R                  
JACKSONVILLE   FAIR      87  66  49 W7        30.10F                  
JAX NAS        FAIR      86  68  54 NE8       30.11S                  
JAX CECIL      SUNNY     91  70  49 VRB3      30.11S HX  97           
FERNANDINA BEA FAIR      84  70  61 W6        30.10F                  
ST AUGUSTINE   FAIR      86  73  65 W5        30.11S                  
PALM COAST     SUNNY     88  73  62 W8        30.10S HX  96           

STATION/POSITION SKY/WX   TEMP    WIND        PRES    WAVE   SWELL
                          AIR SEA DIR/SP/G            HT/PER HT/PER
                          (F)     (DEG/KT/KT) (MB)    (FT/S) (FT/S)
SHELL POINT      NOT AVBL
KEATON BEACH               83     310/  6/ 10 1019.8R
CEDAR KEY                  84     260/  6/  8 1019.7R
FERNANDINA                 89 84  260/  2/  4 1020.2
30.7N   81.3W                 82                N/A     1/ 9
MAYPORT                    82 83  280/  4/  6 1019.9
ST AUGUSTINE               79 78   20/  3/  3 1019.6R

$$
FLZ040-043>046-052-053-057-058-063-144-231600-
INTERIOR CENTRAL FLORIDA
  
CITY           SKY/WX    TMP DP  RH WIND       PRES   REMARKS
OCALA          FAIR      88  77  70 NW5       30.12R HX 100           
LEESBURG       FAIR      87  75  67 W5        30.12R HX  96           
SANFORD        FAIR      88  76  67 VRB7      30.10S HX  99           
ORLANDO EXEC   FAIR      88  75  65 W5        30.10S HX  97           
ORLANDO INTL   FAIR      87  73  62 W6        30.10S                  
KISSIMMEE      FAIR      87  76  69 CALM      30.11F HX  97           
WINTER HAVEN   FAIR      90  72  55 VRB5      30.12S HX  97           
LAKELAND       SUNNY     88  72  58 W5        30.12R                  
BARTOW         SUNNY     88  73  62 NW6       30.10S HX  96           
SEBRING        FAIR      90  72  55 SW7       30.11S HX  97           
OKEECHOBEE     FAIR      88  72  58 CALM      30.10S                  

$$
FLZ041-047-054-059-064-141-147-231600-
EAST CENTRAL FLORIDA
  
CITY           SKY/WX    TMP DP  RH WIND       PRES   REMARKS
ORMOND BEACH   MOSUNNY   86  75  70 W12       30.11R HX  95           
DAYTONA BEACH  FAIR      88  76  67 W6        30.10S HX  99           
DELAND         FAIR      88  75  66 NW8       30.10S HX  97           
NEW SMYRNA BEA SUNNY     90  73  58 NE5       30.11R HX  98           
JFK SPACE CTR  FAIR      86  65  49 W5        30.09S                  
TITUSVILLE     PTSUNNY   90  75  62 NW5       30.10S HX 100           
CAPE CANAVERAL FAIR      87  26  11 NW6       30.08S                  
PATRICK AFB    FAIR      87  79  77 W3        30.09F HX 101           
MELBOURNE      FAIR      89  76  65 W7        30.09S HX 100           
VERO BEACH     FAIR      90  74  59 W8        30.10S HX  99           
FT PIERCE      FAIR      89  73  59 W7        30.10S HX  97           
STUART         SUNNY     88  73  62 VRB7      30.11S HX  96           

STATION/POSITION SKY/WX   TEMP    WIND        PRES    WAVE   SWELL
                          AIR SEA DIR/SP/G            HT/PER HT/PER
                          (F)     (DEG/KT/KT) (MB)    (FT/S) (FT/S)
TRIDENT PIER               85 75  300/  2/  5 1020.4
28.4N   80.5W                 75                N/A     1/11
27.5N   80.2W                 82                N/A     1

$$
FLZ050-056-061-142-242-148-248-149-249-151-251-155-255-
160-260-231600-
WEST CENTRAL FLORIDA
  
CITY           SKY/WX    TMP DP  RH WIND       PRES   REMARKS
CRYSTAL RIVER  PTSUNNY  N/A N/A N/A NW5       30.11S                  
INVERNESS      FAIR      88  81  79 W5        30.11S HX 105           
BROOKSVILLE    FAIR      86  74  67 W8        30.12R                  
CLEARWATER AIR FAIR      86  70  58 W5        30.10S                  
ST PETE CLEARW FAIR      89  71  55 W8        30.10S HX  95           
TAMPA INTL     FAIR      87  75  67 W6        30.11R HX  96           
PLANT CITY       N/A    N/A N/A N/A MISG        N/A                   
MACDILL AFB    FAIR      87  76  70 SW5       30.10S HX  97           
PETER O KNIGHT PTSUNNY   90  77  66 W6        30.11S HX 102           
ST PETERSBURG  FAIR      86  77  74 SE8       30.08F HX  97           
SARASOTA       FAIR      88  76  67 SW5       30.09R HX  99           
VENICE         FAIR      90  75  62 SW6       30.11S HX 100           

STATION/POSITION SKY/WX   TEMP    WIND        PRES    WAVE   SWELL
                          AIR SEA DIR/SP/G            HT/PER HT/PER
                          (F)     (DEG/KT/KT) (MB)    (FT/S) (FT/S)
27.3N   84.2W                 85                N/A     1/ 7
CLEARWATER BEACH           85 88  260/  4/  4 1019.6
MIDDLE TAMPA BAY           88     320/  2/  3 1019.7
VENICE                     83 86  180/  2/  3 1019.3S

$$
FLZ066-069-070-075>078-162-262-165-265-231600-
SOUTHWEST FLORIDA AND KEYS
  
CITY           SKY/WX    TMP DP  RH WIND       PRES   REMARKS
PUNTA GORDA    FAIR      88  73  61 CALM      30.11F HX  95           
FT MYERS       FAIR      90  68  48 CALM      30.09S                  
SOUTHWEST INTL FAIR      88  73  61 CALM      30.10S HX  95           
NAPLES         FAIR      89  76  65 E5        30.09F HX 100           
IMMOKALEE      FAIR      91  77  62 VRB3      30.08S HX 105           
MARATHON       FAIR      89  77  67 E5        30.11S HX 101           
KEY WEST NAS   PTSUNNY   90  77  65 SE8       30.10S HX 103           
KEY WEST INTL  FAIR      86  77  74 SE9       30.11R HX  97           

STATION/POSITION SKY/WX   TEMP    WIND        PRES    WAVE   SWELL
                          AIR SEA DIR/SP/G            HT/PER HT/PER
                          (F)     (DEG/KT/KT) (MB)    (FT/S) (FT/S)
NAPLES                     87 88              1019.1
DRY TORTUGAS     NOT AVBL

$$
FLZ067-068-071>074-168-172>174-231600-
SOUTHEAST FLORIDA 
  
CITY           SKY/WX    TMP DP  RH WIND       PRES   REMARKS
W PALM BEACH   FAIR      89  74  60 CALM      30.10S HX  98           
BOCA RATON     MOSUNNY   90  77  66 CALM      30.10F HX 102           
FT LAUDER-EXEC FAIR      90  73  57 W5        30.09F HX  98           
FT LAUDERDALE  FAIR      91  74  57 S5        30.09F HX 100           
POMPANO BEACH  FAIR      90  73  57 SW5       30.09F HX  98           
PEMBROKE PINES FAIR      91  74  57 VRB3      30.11F HX 100           
OPA LOCKA      FAIR      90  74  59 S3        30.10F HX  99           
MIAMI          FAIR      91  70  49 CALM      30.10F HX  96           
WEST KENDALL   FAIR      90  77  65 SW6       30.10F HX 103           
HOMESTEAD      FAIR      90  75  62 E3        30.10S HX 100           

STATION/POSITION SKY/WX   TEMP    WIND        PRES    WAVE   SWELL
                          AIR SEA DIR/SP/G            HT/PER HT/PER
                          (F)     (DEG/KT/KT) (MB)    (FT/S) (FT/S)
VIRGINIA KEY               86 89  170/  3/  4 1019.3
LAKE WORTH                 86 84  230/  4/  5 1020.6
FOWEY ROCKS                86 84   CALM  /  1 1019.9R
SETTLEMENT POINT           84     240/ 11/ 12 1019.4F

$$